Date String (YYYY-MM-DD hh:mm:ss) UTC,Instrument flags,absolute air pressure of the measurement (hPa),sample flow rate (lpm),inlet stack bypass flow (lpm),air temperature of the measurement (°C),ambient temperature measured by the external sensor (°C),aerosol sample conditioner tube jacket temperature (°C),OPC LED temperature (°C),internal box temperature (°C),relative humidity of the measurement (%),span deviation,mass concentration of particles derived from Lorenz-Mie calculation of OPC scattering (μg/m³),mass concentration of particles derived from Lorenz-Mie calculation of OPC scattering (μg/m³),mass concentration of particles derived from Lorenz-Mie calculation of OPC scattering (μg/m³)
DateTimeUTC,F1_M11,P_M11,Q1_M11,Q2_M11,T1_M11,T2_M11,T3_M11,T4_M11,T5_M11,U1_M11,ZSPAN_M11,X0_M11,X2_M11,X1_M11
2024-05-05 11:00:00,SystemResetWarning,0823.1,4.99,000.00,024.5,023.7,000.0,033.1,026.3,020.8,0000.0,0013.54,0004.58,0003.49
2024-05-05 11:01:00,SystemResetWarning,0823.0,4.99,000.00,024.5,023.7,000.0,033.1,026.3,020.8,0000.0,0013.39,0004.59,0003.51
2024-05-05 11:02:00,SystemResetWarning,0822.6,5.00,000.00,024.5,023.7,000.0,033.1,026.3,020.7,0000.0,0013.80,0004.58,0003.52
2024-05-05 11:03:00,SystemResetWarning,0822.6,5.00,000.00,024.5,023.7,000.0,033.1,026.3,020.4,0000.0,0013.91,0004.61,0003.52
2024-05-05 11:04:00,SystemResetWarning,0822.7,5.00,000.00,024.5,023.7,000.0,033.1,026.4,020.5,0000.0,0014.00,0004.63,0003.51
2024-05-05 11:05:00,SystemResetWarning,0822.6,5.00,000.00,024.5,023.7,000.0,033.1,026.4,020.5,0000.0,0014.39,0004.61,0003.51
2024-05-05 11:06:00,SystemResetWarning,0822.6,5.00,000.00,024.5,023.7,000.0,033.1,026.4,020.6,0000.0,0014.34,0004.61,0003.52
2024-05-05 11:07:00,SystemResetWarning,0822.6,5.00,000.00,024.5,023.7,000.0,033.1,026.4,020.7,0000.0,0013.73,0004.67,0003.55
2024-05-05 11:08:00,SystemResetWarning,0822.8,5.00,000.00,024.5,023.7,000.0,033.1,026.3,020.7,0000.0,0013.13,0004.70,0003.58
2024-05-05 11:09:00,SystemResetWarning,0822.7,5.01,000.00,024.5,023.7,000.0,033.1,026.3,020.8,0000.0,0013.03,0004.67,0003.59
2024-05-05 11:10:00,SystemResetWarning,0822.7,5.00,000.00,024.5,023.7,000.0,033.1,026.3,020.9,0000.0,0013.15,0004.70,0003.60
2024-05-05 11:11:00,SystemResetWarning,0822.9,5.00,000.00,024.5,023.7,000.0,033.1,026.3,020.9,0000.0,0012.00,0004.76,0003.62
2024-05-05 11:12:00,SystemResetWarning,0823.1,5.00,000.00,024.5,023.7,000.0,033.1,026.3,020.8,0000.0,0012.03,0004.81,0003.62
2024-05-05 11:13:00,SystemResetWarning,0822.7,5.00,000.00,024.5,023.8,000.0,033.0,026.3,020.9,0000.0,0011.97,0004.81,0003.65
2024-05-05 11:14:00,SystemResetWarning,0822.8,5.01,000.00,024.5,023.8,000.0,033.0,026.4,020.8,0000.0,0012.08,0004.81,0003.66
2024-05-05 11:15:00,SystemResetWarning,0822.8,5.00,000.00,024.5,023.7,000.0,033.0,026.4,020.7,0000.0,0012.00,0004.79,0003.69
2024-05-05 11:16:00,SystemResetWarning,0822.9,4.99,000.00,024.5,023.7,000.0,033.1,026.4,020.6,0000.0,0012.12,0004.78,0003.71
2024-05-05 11:17:00,SystemResetWarning,0822.9,4.99,000.00,024.5,023.7,000.0,033.1,026.4,020.6,0000.0,0011.88,0004.79,0003.73
2024-05-05 11:18:00,SystemResetWarning,0822.7,5.01,000.00,024.5,023.7,000.0,033.0,026.3,020.5,0000.0,0011.87,0004.79,0003.73
2024-05-05 11:19:00,SystemResetWarning,0822.7,5.01,000.00,024.4,023.7,000.0,033.0,026.2,020.5,0000.0,0012.07,0004.77,0003.72
2024-05-05 11:20:00,SystemResetWarning,0822.6,4.99,000.00,024.4,023.6,000.0,033.0,026.2,020.5,0000.0,0013.05,0004.84,0003.70
2024-05-05 11:21:00,SystemResetWarning,0822.6,4.99,000.00,024.4,023.6,000.0,033.0,026.2,020.5,0000.0,0013.04,0004.85,0003.69
2024-05-05 11:22:00,SystemResetWarning,0822.7,5.01,000.00,024.4,023.6,000.0,033.0,026.2,020.5,0000.0,0012.84,0004.82,0003.68
2024-05-05 11:23:00,SystemResetWarning,0823.0,5.00,000.00,024.4,023.6,000.0,033.0,026.1,020.5,0000.0,0012.64,0004.75,0003.66
2024-05-05 11:24:00,SystemResetWarning,0823.0,5.00,000.00,024.4,023.5,000.0,033.0,026.1,020.5,0000.0,0013.44,0004.74,0003.62
2024-05-05 11:25:00,SystemResetWarning,0822.7,5.01,000.00,024.3,023.5,000.0,032.9,026.0,020.5,0000.0,0013.10,0004.70,0003.60
2024-05-05 11:26:00,SystemResetWarning,0822.7,5.00,000.00,024.3,023.5,000.0,032.9,026.0,020.5,0000.0,0013.63,0004.70,0003.58
2024-05-05 11:27:00,SystemResetWarning,0822.8,5.00,000.00,024.3,023.4,000.0,032.9,026.0,020.4,0000.0,0014.08,0004.71,0003.56
2024-05-05 11:28:00,SystemResetWarning,0822.6,5.00,000.00,024.2,023.4,000.0,032.9,025.9,020.4,0000.0,0014.39,0004.69,0003.54
2024-05-05 11:29:00,SystemResetWarning,0823.0,4.98,000.00,024.2,023.3,000.0,032.9,025.9,020.5,0000.0,0014.98,0004.66,0003.51
2024-05-05 11:30:00,SystemResetWarning,0822.7,5.00,000.00,024.2,023.3,000.0,032.9,025.9,020.6,0000.0,0015.30,0004.68,0003.50
2024-05-05 11:31:00,SystemResetWarning,0822.6,5.00,000.00,024.1,023.3,000.0,032.9,025.9,020.6,0000.0,0014.32,0004.64,0003.50
2024-05-05 11:32:00,SystemResetWarning,0822.6,5.01,000.00,024.1,023.3,000.0,032.8,025.8,020.6,0000.0,0013.53,0004.56,0003.50
2024-05-05 11:33:00,SystemResetWarning,0822.7,5.01,000.00,024.1,023.2,000.0,032.8,025.7,020.6,0000.0,0013.35,0004.47,0003.48
2024-05-05 11:34:00,SystemResetWarning,0822.8,4.98,000.00,024.0,023.2,000.0,032.8,025.7,020.6,0000.0,0013.34,0004.47,0003.47
2024-05-05 11:35:00,SystemResetWarning,0822.7,5.00,000.00,024.0,023.2,000.0,032.8,025.7,020.7,0000.0,0012.34,0004.44,0003.47
2024-05-05 11:36:00,SystemResetWarning,0822.7,5.01,000.00,024.0,023.2,000.0,032.7,025.7,020.7,0000.0,0012.48,0004.46,0003.47
2024-05-05 11:37:00,SystemResetWarning,0822.7,5.01,000.00,024.0,023.2,000.0,032.7,025.7,020.7,0000.0,0012.29,0004.46,0003.47
2024-05-05 11:38:00,SystemResetWarning,0822.8,5.01,000.00,024.0,023.2,000.0,032.7,025.8,020.8,0000.0,0011.49,0004.43,0003.46
2024-05-05 11:39:00,SystemResetWarning,0822.8,4.98,000.00,024.0,023.2,000.0,032.7,025.8,020.8,0000.0,0011.32,0004.44,0003.48
2024-05-05 11:40:00,SystemResetWarning,0822.8,5.00,000.00,024.0,023.2,000.0,032.7,025.9,020.8,0000.0,0011.77,0004.47,0003.49
2024-05-05 11:41:00,SystemResetWarning,0822.8,5.01,000.00,024.0,023.2,000.0,032.7,025.9,020.9,0000.0,0011.45,0004.46,0003.50
2024-05-05 11:42:00,SystemResetWarning,0822.8,5.00,000.00,024.0,023.2,000.0,032.7,025.9,021.0,0000.0,0011.29,0004.42,0003.50
2024-05-05 11:43:00,SystemResetWarning,0823.2,5.00,000.00,024.0,023.3,000.0,032.7,025.9,021.0,0000.0,0012.91,0004.42,0003.50
2024-05-05 11:44:00,SystemResetWarning,0822.8,5.00,000.00,024.0,023.3,000.0,032.7,025.9,021.0,0000.0,0012.98,0004.46,0003.52
2024-05-05 11:45:00,SystemResetWarning,0822.9,5.00,000.00,024.0,023.3,000.0,032.7,025.9,021.0,0000.0,0013.03,0004.47,0003.54
2024-05-05 11:46:00,SystemResetWarning,0822.9,4.99,000.00,024.0,023.3,000.0,032.7,025.9,021.1,0000.0,0012.79,0004.50,0003.56
2024-05-05 11:47:00,SystemResetWarning,0822.9,5.00,000.00,024.0,023.3,000.0,032.7,025.9,021.1,0000.0,0013.00,0004.50,0003.57
2024-05-05 11:48:00,SystemResetWarning,0823.1,5.00,000.00,024.0,023.3,000.0,032.7,025.9,021.1,0000.0,0013.02,0004.48,0003.57
2024-05-05 11:49:00,SystemResetWarning,0823.0,5.00,000.00,024.1,023.3,000.0,032.7,025.9,021.1,0000.0,0013.95,0004.53,0003.59
2024-05-05 11:50:00,SystemResetWarning,0822.8,4.99,000.00,024.1,023.3,000.0,032.7,026.0,021.1,0000.0,0014.10,0004.53,0003.60
2024-05-05 11:51:00,SystemResetWarning,0823.0,5.00,000.00,024.1,023.3,000.0,032.7,026.0,021.0,0000.0,0013.09,0004.50,0003.60
2024-05-05 11:52:00,SystemResetWarning,0822.8,5.01,000.00,024.0,023.3,000.0,032.6,025.9,021.1,0000.0,0012.92,0004.53,0003.60
2024-05-05 11:53:00,SystemResetWarning,0823.1,5.01,000.00,024.1,023.3,000.0,032.6,025.9,021.0,0000.0,0013.10,0004.55,0003.60
2024-05-05 11:54:00,SystemResetWarning,0822.9,5.01,000.00,024.1,023.3,000.0,032.6,025.9,020.9,0000.0,0011.85,0004.58,0003.59
2024-05-05 11:55:00,SystemResetWarning,0822.8,4.99,000.00,024.0,023.3,000.0,032.6,025.9,020.7,0000.0,0013.15,0004.60,0003.58
2024-05-05 11:56:00,SystemResetWarning,0823.0,4.99,000.00,024.0,023.3,000.0,032.6,025.9,020.5,0000.0,0015.02,0004.61,0003.55
2024-05-05 11:57:00,SystemResetWarning,0822.9,5.02,000.00,024.0,023.3,000.0,032.6,025.9,020.2,0000.0,0015.11,0004.58,0003.50
2024-05-05 11:58:00,SystemResetWarning,0823.0,5.01,000.00,024.0,023.2,000.0,032.6,025.9,020.3,0000.0,0014.76,0004.54,0003.45
2024-05-05 11:59:00,SystemResetWarning,0823.0,4.98,000.00,024.0,023.2,000.0,032.6,025.9,020.3,0000.0,0014.44,0004.53,0003.41
